Tracking 22287 objects as of 27-Jan-2021
HD Live streaming from Space Station
objects crossing your sky now

STARLINK-1501

Track STARLINK-1501 now!
10-day predictions
STARLINK-1501 is classified as:


NORAD ID: 45763
Int'l Code: 2020-038AK
Perigee: 555.3 km
Apogee: 558.3 km
Inclination: 53.0 °
Period: 95.6 minutes
Semi major axis: 6927 km
RCS: Unknown
Launch date: June 13, 2020
Source: United States (US)
Launch site: AIR FORCE EASTERN TEST RANGE (AFETR)
aabbcc
Your satellite tracking list
Your tracking list is empty




NASA's NSSDC Master Catalog

Two Line Element Set (TLE):
1 45763U 20038AK  21026.83827168 -.00001143  00000-0 -59243-4 0  9990
2 45763  53.0020 321.7334 0002192  74.4402 285.6828 15.05592117 35154
Source of the keplerian elements: AFSPC